• In Netherlands
  • List of Countries
  • For 7 days
  • Water Temperature
  • Satellite Maps
  • Weather Map
  • Weather Widgets
  • user-avatar
    Login

    Hourly Weather Tirana

    Today, 21 February, Tuesday

    Time Temperature Precipitation Wind Pressure Humidity
    00:00 +4°C° 0 mm 2 mps 758 mmHg 82%
    01:00 +4°C° 0 mm 2 mps 758 mmHg 82%
    02:00 +4°C° 0 mm 2 mps 758 mmHg 82%
    03:00 +4°C° 0 mm 2 mps 757 mmHg 82%
    04:00 +4°C° 0 mm 2 mps 757 mmHg 82%
    05:00 +4°C° 0 mm 2 mps 757 mmHg 82%
    06:00 +4°C° 0 mm 2 mps 757 mmHg 81%
    07:00 +4°C° 0 mm 2 mps 757 mmHg 80%
    08:00 +6°C° 0 mm 2 mps 757 mmHg 71%
    09:00 +8°C° 0 mm 2 mps 757 mmHg 61%
    10:00 +10°C° 0 mm 2 mps 757 mmHg 51%
    11:00 +12°C° 0 mm 2 mps 757 mmHg 49%
    12:00 +11°C° 0 mm 3 mps 757 mmHg 48%
    13:00 +12°C° 0 mm 3 mps 756 mmHg 46%
    14:00 +11°C° 0 mm 3 mps 756 mmHg 51%
    15:00 +11°C° 0 mm 3 mps 756 mmHg 55%
    16:00 +10°C° 0 mm 3 mps 756 mmHg 59%
    17:00 +8°C° 0 mm 3 mps 756 mmHg 67%
    18:00 +7°C° 0 mm 3 mps 756 mmHg 74%
    19:00 +5°C° 0 mm 2 mps 757 mmHg 81%
    20:00 +5°C° 0 mm 2 mps 757 mmHg 79%
    21:00 +5°C° 0 mm 2 mps 757 mmHg 77%
    22:00 +5°C° 0 mm 2 mps 757 mmHg 75%
    23:00 +5°C° 0 mm 2 mps 757 mmHg 73%

    Tomorrow, 22 February, Wednesday

    Time Temperature Precipitation Wind Pressure Humidity
    00:00 +5°C° 0 mm 2 mps 757 mmHg 71%
    01:00 +5°C° 0 mm 2 mps 757 mmHg 69%
    02:00 +4°C° 0 mm 2 mps 757 mmHg 68%
    03:00 +4°C° 0 mm 2 mps 757 mmHg 67%
    04:00 +5°C° 0 mm 1 mps 757 mmHg 67%
    05:00 +6°C° 0 mm 1 mps 757 mmHg 67%
    06:00 +6°C° 0 mm 1 mps 757 mmHg 67%
    07:00 +6°C° 0 mm 1 mps 757 mmHg 67%
    08:00 +9°C° 0 mm 1 mps 757 mmHg 61%
    09:00 +11°C° 0 mm 1 mps 757 mmHg 56%
    10:00 +14°C° 0 mm 1 mps 758 mmHg 51%
    11:00 +14°C° 0 mm 1 mps 757 mmHg 52%
    12:00 +15°C° 0 mm 1 mps 757 mmHg 54%
    13:00 +16°C° 0 mm 1 mps 757 mmHg 55%
    14:00 +15°C° 0 mm 1 mps 757 mmHg 60%
    15:00 +15°C° 0 mm 1 mps 756 mmHg 64%
    16:00 +14°C° 0 mm 1 mps 756 mmHg 69%
    17:00 +12°C° 0 mm 1 mps 756 mmHg 76%
    18:00 +10°C° 0 mm 1 mps 757 mmHg 83%
    19:00 +8°C° 0 mm 1 mps 757 mmHg 91%
    20:00 +8°C° 0 mm 1 mps 757 mmHg 90%
    21:00 +8°C° 0 mm 1 mps 757 mmHg 90%
    22:00 +6°C° 0 mm 2 mps 757 mmHg 90%
    23:00 +6°C° 0 mm 2 mps 757 mmHg 91%

    Day after tomorrow, 23 February, Thursday

    Time Temperature Precipitation Wind Pressure Humidity
    00:00 +6°C° 0 mm 2 mps 757 mmHg 91%
    01:00 +6°C° 0 mm 2 mps 758 mmHg 91%
    02:00 +6°C° 0 mm 2 mps 757 mmHg 91%
    03:00 +5°C° 0 mm 3 mps 757 mmHg 91%
    04:00 +5°C° 0 mm 3 mps 757 mmHg 91%
    05:00 +5°C° 0 mm 3 mps 757 mmHg 90%
    06:00 +5°C° 0 mm 3 mps 757 mmHg 89%
    07:00 +5°C° 0 mm 3 mps 757 mmHg 88%
    08:00 +8°C° 0 mm 3 mps 757 mmHg 79%
    09:00 +11°C° 0 mm 3 mps 757 mmHg 69%
    10:00 +13°C° 0 mm 3 mps 757 mmHg 59%
    11:00 +14°C° 0 mm 3 mps 757 mmHg 57%
    12:00 +16°C° 0 mm 3 mps 756 mmHg 54%
    13:00 +16°C° 0 mm 3 mps 756 mmHg 51%
    14:00 +16°C° 0 mm 3 mps 756 mmHg 55%
    15:00 +14°C° 0 mm 3 mps 755 mmHg 59%
    16:00 +14°C° 0 mm 4 mps 755 mmHg 63%
    17:00 +12°C° 0 mm 4 mps 755 mmHg 70%
    18:00 +10°C° 0 mm 4 mps 756 mmHg 78%
    19:00 +7°C° 0 mm 4 mps 756 mmHg 86%
    20:00 +7°C° 0 mm 4 mps 756 mmHg 87%
    21:00 +7°C° 0 mm 4 mps 756 mmHg 88%
    22:00 +7°C° 0 mm 5 mps 756 mmHg 90%
    23:00 +7°C° 0 mm 5 mps 756 mmHg 90%

    24 February, Friday

    Time Temperature Precipitation Wind Pressure Humidity
    00:00 +7°C° 0 mm 5 mps 756 mmHg 91%
    01:00 +7°C° 0 mm 5 mps 756 mmHg 91%
    02:00 +7°C° 0.1 mm 5 mps 755 mmHg 90%
    03:00 +7°C° 0.1 mm 5 mps 755 mmHg 89%
    04:00 +7°C° 0.1 mm 5 mps 754 mmHg 88%
    05:00 +7°C° 0 mm 5 mps 754 mmHg 88%
    06:00 +7°C° 0 mm 5 mps 754 mmHg 87%
    07:00 +7°C° 0 mm 5 mps 754 mmHg 87%
    08:00 +9°C° 0 mm 6 mps 754 mmHg 80%
    09:00 +13°C° 0 mm 6 mps 754 mmHg 73%
    10:00 +15°C° 0 mm 6 mps 754 mmHg 66%
    11:00 +15°C° 0 mm 7 mps 754 mmHg 63%
    12:00 +16°C° 0 mm 7 mps 753 mmHg 61%
    13:00 +17°C° 0 mm 7 mps 753 mmHg 59%
    14:00 +16°C° 0.1 mm 8 mps 752 mmHg 64%
    15:00 +16°C° 0.1 mm 8 mps 752 mmHg 69%
    16:00 +15°C° 0.1 mm 8 mps 751 mmHg 74%
    17:00 +13°C° 0.4 mm 8 mps 751 mmHg 77%
    18:00 +12°C° 0.4 mm 8 mps 751 mmHg 80%
    19:00 +11°C° 0.4 mm 8 mps 751 mmHg 83%
    20:00 +11°C° 0.6 mm 8 mps 750 mmHg 83%
    21:00 +11°C° 0.6 mm 8 mps 750 mmHg 84%
    22:00 +11°C° 0.6 mm 8 mps 749 mmHg 84%
    23:00 +11°C° 0.7 mm 9 mps 749 mmHg 86%

    25 February, Saturday

    Time Temperature Precipitation Wind Pressure Humidity
    00:00 +11°C° 0.7 mm 9 mps 748 mmHg 87%
    01:00 +10°C° 0.7 mm 9 mps 748 mmHg 89%
    02:00 +10°C° 0.5 mm 9 mps 748 mmHg 90%
    03:00 +10°C° 0.5 mm 9 mps 748 mmHg 90%
    04:00 +10°C° 0.5 mm 8 mps 748 mmHg 91%
    05:00 +11°C° 0.4 mm 7 mps 749 mmHg 91%
    06:00 +11°C° 0.4 mm 6 mps 749 mmHg 91%
    07:00 +12°C° 0.4 mm 5 mps 750 mmHg 91%
    08:00 +13°C° 0.3 mm 4 mps 751 mmHg 88%
    09:00 +13°C° 0.3 mm 4 mps 752 mmHg 85%
    10:00 +14°C° 0.3 mm 4 mps 752 mmHg 82%
    11:00 +15°C° 0.2 mm 4 mps 752 mmHg 80%
    12:00 +16°C° 0.2 mm 3 mps 752 mmHg 78%
    13:00 +17°C° 0.2 mm 3 mps 752 mmHg 77%
    14:00 +17°C° 0 mm 3 mps 753 mmHg 76%
    15:00 +17°C° 0 mm 3 mps 753 mmHg 76%
    16:00 +17°C° 0 mm 2 mps 753 mmHg 75%
    17:00 +14°C° 0 mm 3 mps 754 mmHg 79%
    18:00 +13°C° 0 mm 3 mps 754 mmHg 82%
    19:00 +11°C° 0 mm 3 mps 755 mmHg 86%
    20:00 +11°C° 0 mm 3 mps 755 mmHg 85%
    21:00 +10°C° 0 mm 3 mps 755 mmHg 84%
    22:00 +10°C° 0 mm 3 mps 756 mmHg 83%
    23:00 +9°C° 0 mm 3 mps 756 mmHg 82%

    26 February, Sunday

    Time Temperature Precipitation Wind Pressure Humidity
    00:00 +9°C° 0 mm 3 mps 756 mmHg 80%
    01:00 +9°C° 0 mm 3 mps 756 mmHg 79%
    02:00 +9°C° 0 mm 3 mps 756 mmHg 76%
    03:00 +8°C° 0 mm 3 mps 757 mmHg 74%
    04:00 +8°C° 0 mm 3 mps 757 mmHg 71%
    05:00 +8°C° 0 mm 2 mps 757 mmHg 68%
    06:00 +9°C° 0 mm 2 mps 757 mmHg 66%
    07:00 +9°C° 0 mm 2 mps 757 mmHg 63%
    08:00 +12°C° 0 mm 2 mps 757 mmHg 57%
    09:00 +15°C° 0 mm 2 mps 758 mmHg 52%
    10:00 +19°C° 0 mm 1 mps 758 mmHg 47%
    11:00 +18°C° 0 mm 2 mps 758 mmHg 44%
    12:00 +19°C° 0 mm 2 mps 758 mmHg 42%
    13:00 +20°C° 0 mm 2 mps 757 mmHg 39%
    14:00 +19°C° 0 mm 2 mps 757 mmHg 45%
    15:00 +19°C° 0 mm 2 mps 757 mmHg 50%
    16:00 +18°C° 0 mm 3 mps 757 mmHg 56%
    17:00 +16°C° 0 mm 2 mps 757 mmHg 62%
    18:00 +14°C° 0 mm 2 mps 758 mmHg 67%
    19:00 +10°C° 0 mm 2 mps 758 mmHg 73%
    20:00 +10°C° 0 mm 2 mps 758 mmHg 72%
    21:00 +11°C° 0 mm 1 mps 758 mmHg 71%
    22:00 +10°C° 0 mm 1 mps 758 mmHg 69%
    23:00 +10°C° 0 mm 1 mps 758 mmHg 68%
    Show more